Location: Ailly
(50.0793°N, 1.9944°E)
Time: 00:56:48
(UTC+00:00)

CZ-4C R/B - Pass Details

Date: 15 January 2026
Orbit: 483 x 1496 km, 63.4° (Epoch: 6 February)

Event Time Altitude Azimuth Distance (km) Brightness Sun altitude
Exits shadow 06:18:04 12° 323° (NW) 2,501 4.2 -13.5°
Maximum altitude 06:23:21 34° 26° (NNE) 1,692 3.8 -12.6°
Drops below altitude 10° 06:30:19 10° 89° (E) 3,255 6.5 -11.6°
Sets 06:33:47 0° 98° (E) 4,362 7.8 -11.1°
